Wind_Speed
17 18 18 18 18 19 19 19 18 16 15 15 16 16 16 16 16 16 16 16 16 16 16 16 16 16 16 17 18 18 19 19 20 21 21 22 23 24 25 26 26 27 28 28
18 19 20 19 18 19 20 20 20 19 18 17 17 17 17 18 19 19 19 18 18 18 18 17 18 18 18 18 19 20 20 21 21 22 23 24 25 26 27 28 28 29 30 31
18 19 21 20 19 20 20 20 21 20 18 19 19 18 19 19 20 21 20 20 20 20 20 19 19 19 20 20 20 21 22 22 24 25 26 27 28 28 29 30 31 32 32 33
19 19 20 19 20 20 20 20 20 19 19 19 20 20 20 20 19 20 21 21 21 22 22 21 21 21 20 21 22 23 24 25 26 27 28 29 30 31 32 33 33 34 35 36
19 20 19 18 19 20 20 20 20 19 19 19 20 21 22 21 21 21 22 23 24 25 25 24 24 23 23 24 24 24 25 26 28 29 30 31 32 33 34 35 36 37 38 39
19 20 19 18 19 19 20 20 19 19 19 19 20 20 21 22 22 23 24 25 26 27 27 26 26 26 26 26 26 27 28 29 31 32 32 33 35 36 37 38 39 40 41 41
20 20 19 19 18 19 20 20 19 19 19 18 18 19 20 21 21 21 23 25 26 27 27 27 27 26 26 27 28 30 32 33 33 34 35 36 38 39 41 42 43 43 43 44
20 20 19 19 18 19 19 19 19 18 18 19 19 19 19 20 20 21 23 24 25 26 27 27 27 27 28 29 30 32 33 34 36 37 38 40 41 42 44 45 46 46 46 47
21 20 19 19 19 20 20 19 19 19 19 20 20 20 19 20 20 21 22 23 25 26 27 27 28 29 31 32 34 35 36 37 39 40 41 42 44 45 46 48 48 49 50 51
22 21 21 20 20 21 20 20 20 20 21 21 21 21 20 19 19 20 21 23 24 26 26 27 28 30 32 34 36 37 38 39 41 42 43 45 46 48 49 49 51 53 54 54
24 23 23 22 22 23 23 23 24 23 22 22 23 22 20 20 20 21 23 24 25 26 26 28 30 32 33 35 37 38 40 41 43 44 46 47 49 51 52 54 55 56 56 57
25 24 24 24 24 24 24 24 24 23 23 24 25 23 23 23 23 24 25 26 26 28 29 31 32 34 36 37 39 41 42 44 45 47 48 50 52 53 55 56 57 58 59 60
26 26 25 25 25 25 25 25 25 25 25 26 25 25 25 25 26 26 27 28 29 30 32 33 35 36 38 39 41 42 44 46 47 49 51 52 54 55 56 58 59 60 62 63
25 25 25 26 26 25 25 25 25 26 26 26 26 26 26 26 27 28 29 30 31 32 34 35 37 38 40 41 43 45 46 48 50 51 53 55 56 58 59 60 61 62 63 64
25 25 26 26 27 27 26 26 26 26 26 26 26 27 28 28 29 30 30 32 33 34 36 38 39 41 42 44 46 47 49 50 52 54 56 57 59 60 62 63 64 64 65 65
25 25 26 27 27 28 28 28 27 27 27 27 28 28 29 29 30 31 32 34 36 38 39 41 42 44 46 47 49 50 52 53 55 57 58 60 61 62 63 64 65 65 65 65
24 24 25 26 26 26 27 26 26 26 27 27 27 29 30 31 32 34 36 38 40 41 43 44 45 47 49 51 52 54 55 57 58 60 60 61 62 63 63 64 64 64 63 62
24 25 25 24 23 24 25 25 25 25 26 27 29 31 33 35 36 38 40 41 43 44 46 48 49 51 53 54 55 57 58 58 59 59 60 60 61 61 61 61 61 60 59 57
24 24 22 22 22 22 22 24 25 27 29 31 33 35 36 38 40 41 43 45 47 48 49 51 52 54 55 56 56 57 57 57 57 57 57 58 58 57 57 57 55 54 53 51
24 23 22 22 22 24 26 28 29 31 33 35 36 38 40 42 44 45 47 49 50 51 52 53 53 54 54 55 55 54 54 54 54 54 54 53 53 52 51 50 48 47 46 44
26 26 27 28 28 28 30 32 34 35 37 38 40 42 44 46 47 49 50 51 51 51 52 52 52 52 52 52 51 50 50 50 50 49 48 48 47 47 45 44 42 40 37 34
28 28 30 31 32 33 35 37 38 39 40 42 44 46 47 48 49 50 50 50 50 49 49 49 49 48 47 46 46 46 46 45 45 44 44 43 42 41 40 37 34 31 29 27
31 32 33 35 36 37 39 40 42 43 44 46 47 47 48 48 48 47 47 46 46 45 45 44 44 43 42 42 42 42 42 41 40 39 39 38 37 35 32 29 26 24 22 20
35 37 38 39 40 41 42 44 45 46 46 46 46 46 46 45 44 44 43 43 42 41 41 40 39 39 39 39 38 38 37 36 35 35 34 33 31 29 26 23 20 19 17 15
39 40 41 42 43 44 45 46 46 46 46 45 44 43 42 41 40 40 39 39 38 37 37 36 36 36 36 35 34 33 32 32 32 31 30 28 25 22 20 17 16 14 12 11
42 42 43 44 44 44 44 44 43 43 41 40 39 38 37 37 37 36 36 35 35 34 34 34 33 33 32 31 30 30 29 28 28 27 23 20 18 16 15 13 12 11 9 7
42 43 43 42 42 41 40 39 38 37 37 36 35 34 34 34 33 33 32 32 32 31 31 30 30 29 28 28 27 27 26 25 24 21 18 15 14 13 12 12 10 8 7 7
Wind_Direction
286 286 291 294 292 290 289 288 284 283 278 271 266 263 259 258 260 262 263 264 263 258 255 255 255 255 256 257 258 261 264 268 272 275 278 281 284 287 289 292 295 297 299 301
282 284 289 293 294 289 286 284 284 282 276 270 266 265 264 261 262 263 262 262 262 258 255 256 258 258 259 261 263 265 268 270 274 277 279 282 284 287 289 292 294 295 297 299
282 284 286 290 293 290 288 286 285 282 278 270 264 264 264 265 266 263 264 263 260 258 257 257 258 260 261 263 266 268 271 273 276 279 281 283 285 288 289 291 292 294 296 297
282 284 286 294 291 289 289 289 286 282 277 272 267 266 267 266 268 264 262 261 260 259 257 258 262 264 265 267 269 271 274 276 278 280 282 284 286 287 288 290 292 293 295 296
281 285 291 292 288 287 286 286 285 280 277 275 272 271 270 268 268 264 261 260 259 259 259 258 261 263 265 267 270 272 275 277 279 281 283 285 286 287 288 289 291 293 294 296
279 284 289 292 289 289 288 285 285 280 277 274 272 274 274 270 266 262 259 259 257 258 258 259 261 262 266 270 274 275 276 277 280 282 283 285 287 287 288 289 291 292 294 295
276 280 285 288 289 289 287 288 283 279 276 275 275 276 272 266 264 265 260 259 259 258 259 261 265 267 270 273 276 277 278 279 280 283 284 286 287 288 288 289 291 292 292 293
273 278 282 284 286 288 289 287 284 281 277 277 277 276 272 270 269 270 266 262 261 260 262 264 265 269 272 274 275 277 279 280 281 283 285 286 287 288 288 289 290 291 291 293
274 278 280 282 283 285 287 285 284 281 279 280 280 277 274 273 271 272 269 267 267 266 265 265 268 271 274 275 278 280 281 282 283 284 285 286 287 287 288 289 288 289 290 292
276 277 278 280 282 281 283 284 282 279 279 282 280 279 276 275 274 273 273 274 273 271 271 274 275 276 277 278 279 281 282 283 284 284 285 286 287 287 288 288 288 289 290 291
275 277 278 278 280 280 281 283 282 276 277 278 277 276 275 277 279 279 279 279 278 278 279 280 280 281 281 281 282 283 284 285 285 285 286 287 287 287 288 288 289 289 289 289
273 275 277 277 278 279 278 280 278 277 275 275 274 275 277 279 281 283 284 284 284 283 283 284 284 284 284 284 285 285 286 286 287 287 287 287 287 288 288 288 288 289 289 288
271 273 274 275 276 276 275 274 273 271 270 271 273 275 278 282 283 283 284 285 286 286 286 286 286 287 287 287 287 287 287 287 288 288 288 288 288 288 288 288 288 288 288 288
271 272 271 272 274 274 272 270 269 268 269 271 274 277 279 281 283 284 285 286 287 288 288 288 289 289 289 289 289 290 290 290 289 289 289 289 289 289 288 288 287 287 287 287
270 271 271 271 271 272 270 270 269 269 270 272 275 278 281 283 285 286 288 289 290 291 291 292 292 292 292 292 292 292 292 292 291 291 291 291 290 290 290 289 289 288 288 287
270 271 270 271 270 269 268 267 267 268 270 272 275 279 282 284 286 288 290 291 292 293 293 293 294 294 294 294 294 294 293 293 293 292 292 291 291 291 291 290 290 289 289 288
271 272 272 272 270 267 265 264 265 268 271 274 278 282 284 286 288 291 292 293 293 294 294 295 296 296 296 296 296 295 295 294 294 293 293 293 292 292 292 292 291 291 290 290
274 275 274 274 269 267 264 264 267 271 275 278 282 285 288 290 292 294 294 295 295 296 297 297 297 298 298 298 297 297 296 296 295 295 295 295 295 295 294 294 293 293 292 291
280 281 280 277 273 271 269 269 273 278 282 286 288 289 290 292 294 295 296 297 297 298 298 298 299 299 299 299 299 298 298 298 298 297 297 297 297 297 297 297 297 295 293 292
279 279 280 278 273 271 273 275 278 281 285 288 289 291 292 294 296 297 298 299 299 299 300 300 300 300 300 300 299 299 299 300 300 300 299 299 300 300 300 300 299 298 297 295
278 278 278 276 273 273 276 278 280 282 285 288 291 293 295 297 299 299 300 300 300 301 300 300 300 300 301 301 301 301 301 302 303 303 303 303 303 303 303 302 302 301 300 298
274 277 276 275 277 279 281 284 285 287 290 293 296 297 298 300 300 301 301 301 301 301 301 301 302 302 302 302 303 303 304 305 305 305 306 307 307 307 306 305 305 304 303 301
274 275 277 279 280 283 286 288 291 293 295 298 299 300 301 301 301 301 301 301 301 302 302 303 303 304 304 304 305 306 307 307 308 309 310 311 312 312 312 310 309 309 307 305
276 278 280 282 283 286 289 293 295 296 298 300 301 301 302 302 302 302 302 302 303 303 304 304 305 305 306 307 308 310 310 311 312 313 314 315 317 318 318 317 316 316 314 313
278 281 283 285 288 290 293 295 297 298 300 301 302 302 302 303 303 303 303 304 304 304 305 306 307 308 309 311 312 313 314 316 317 317 318 319 322 324 326 327 329 328 326 327
283 285 287 290 292 293 294 296 297 298 299 300 301 301 301 302 303 303 304 304 304 305 306 308 310 311 313 313 314 315 317 320 322 324 324 327 331 334 337 340 343 346 347 349
287 289 290 292 293 294 294 295 296 297 297 298 299 300 301 302 303 304 305 305 306 306 308 310 312 314 316 316 317 318 320 323 325 329 332 336 339 343 347 350 354 360 2 2
Height
5836 5836 5835 5835 5834 5833 5832 5832 5833 5833 5834 5834 5833 5834 5834 5834 5834 5834 5833 5833 5833 5833 5832 5832 5832 5832 5832 5832 5832 5831 5831 5830 5830 5829 5828 5827 5826 5824 5823 5821 5819 5818 5816 5813
5831 5830 5830 5830 5829 5828 5828 5827 5827 5828 5829 5829 5829 5829 5830 5830 5830 5830 5829 5829 5829 5828 5828 5828 5827 5827 5827 5827 5826 5826 5825 5824 5824 5823 5821 5820 5819 5817 5815 5814 5812 5810 5808 5806
5826 5825 5825 5825 5825 5823 5823 5822 5822 5822 5824 5823 5824 5824 5824 5824 5824 5824 5824 5824 5823 5823 5823 5823 5822 5822 5821 5821 5820 5820 5819 5818 5817 5816 5814 5813 5811 5809 5807 5806 5804 5802 5800 5797
5821 5821 5820 5822 5819 5818 5818 5817 5817 5817 5817 5817 5817 5817 5818 5818 5818 5818 5818 5817 5817 5816 5816 5816 5816 5815 5815 5814 5813 5812 5812 5811 5809 5808 5806 5804 5803 5801 5799 5797 5795 5793 5791 5788
5815 5815 5815 5815 5814 5812 5812 5812 5811 5811 5811 5810 5810 5810 5810 5810 5811 5810 5810 5810 5810 5810 5809 5809 5809 5808 5808 5807 5806 5805 5804 5803 5801 5799 5798 5796 5794 5792 5790 5788 5787 5784 5782 5779
5809 5809 5810 5811 5809 5807 5807 5806 5805 5805 5804 5804 5804 5804 5804 5803 5802 5802 5802 5802 5802 5802 5801 5801 5801 5801 5800 5799 5798 5797 5796 5794 5793 5791 5789 5787 5785 5783 5781 5779 5777 5774 5771 5768
5803 5803 5804 5804 5803 5802 5802 5801 5799 5798 5798 5798 5797 5797 5797 5796 5795 5795 5794 5794 5794 5794 5794 5793 5793 5793 5792 5791 5790 5789 5787 5786 5784 5782 5780 5778 5776 5774 5771 5769 5766 5764 5761 5758
5798 5798 5800 5798 5797 5797 5796 5794 5793 5792 5792 5791 5791 5790 5790 5789 5788 5787 5787 5787 5786 5786 5786 5786 5785 5785 5784 5783 5782 5780 5778 5776 5774 5772 5770 5768 5766 5763 5760 5757 5754 5751 5748 5745
5793 5794 5793 5792 5791 5790 5789 5788 5787 5787 5786 5786 5785 5784 5783 5782 5782 5781 5780 5780 5779 5779 5778 5777 5777 5776 5775 5774 5773 5771 5769 5767 5764 5762 5760 5757 5754 5751 5748 5744 5741 5738 5735 5732
5785 5786 5786 5785 5784 5784 5783 5782 5781 5781 5780 5779 5778 5778 5777 5776 5775 5774 5774 5773 5772 5771 5770 5769 5769 5768 5766 5765 5763 5761 5759 5756 5754 5751 5748 5745 5742 5738 5735 5732 5728 5724 5721 5717
5778 5779 5779 5779 5778 5777 5777 5776 5775 5774 5773 5772 5772 5771 5770 5769 5769 5768 5767 5766 5764 5763 5762 5761 5760 5758 5756 5754 5752 5750 5747 5744 5742 5739 5735 5732 5729 5725 5721 5717 5713 5709 5705 5701
5771 5772 5772 5771 5771 5770 5769 5768 5768 5767 5766 5765 5765 5764 5763 5762 5762 5761 5759 5758 5756 5755 5753 5752 5750 5748 5746 5743 5741 5738 5735 5732 5729 5726 5722 5718 5715 5711 5706 5702 5697 5692 5688 5684
5763 5763 5763 5763 5763 5762 5761 5761 5760 5759 5759 5758 5757 5756 5756 5755 5754 5753 5751 5750 5748 5746 5744 5742 5740 5737 5735 5732 5729 5726 5723 5719 5716 5712 5708 5704 5699 5695 5691 5686 5680 5675 5669 5664
5755 5756 5755 5755 5755 5754 5753 5753 5752 5751 5751 5750 5749 5749 5748 5747 5746 5744 5743 5741 5739 5737 5734 5732 5729 5726 5723 5720 5717 5713 5709 5705 5701 5697 5692 5687 5682 5677 5672 5668 5663 5658 5651 5645
5748 5748 5748 5747 5747 5747 5746 5745 5745 5744 5743 5742 5741 5741 5740 5738 5737 5735 5733 5731 5729 5726 5723 5721 5717 5714 5711 5707 5703 5699 5695 5690 5686 5680 5675 5670 5664 5658 5653 5647 5642 5636 5631 5625
5740 5740 5740 5740 5739 5738 5738 5737 5736 5735 5735 5734 5733 5732 5731 5729 5727 5725 5723 5720 5718 5715 5712 5708 5705 5701 5697 5693 5689 5684 5679 5674 5668 5663 5657 5651 5645 5639 5633 5627 5621 5615 5609 5603
5733 5733 5732 5731 5731 5730 5729 5728 5727 5727 5726 5725 5724 5723 5721 5719 5717 5715 5712 5709 5706 5703 5699 5695 5691 5687 5683 5678 5673 5668 5663 5657 5650 5644 5638 5632 5625 5619 5612 5606 5599 5593 5588 5582
5726 5725 5724 5723 5722 5721 5720 5720 5719 5718 5717 5716 5714 5713 5711 5709 5706 5704 5701 5697 5694 5690 5686 5681 5677 5672 5667 5662 5656 5651 5644 5638 5632 5625 5619 5612 5605 5598 5592 5585 5579 5573 5568 5563
5718 5717 5716 5715 5714 5713 5712 5712 5711 5709 5708 5706 5704 5702 5699 5697 5694 5691 5688 5684 5680 5676 5672 5667 5662 5656 5651 5645 5639 5633 5626 5620 5614 5607 5600 5593 5587 5580 5573 5566 5560 5554 5548 5544
5710 5709 5708 5707 5706 5705 5704 5703 5701 5699 5697 5695 5693 5690 5688 5685 5682 5678 5674 5670 5666 5661 5656 5651 5645 5640 5634 5628 5622 5616 5610 5603 5597 5590 5583 5576 5570 5563 5557 5550 5544 5538 5532 5528
5702 5701 5700 5699 5698 5696 5695 5693 5691 5689 5687 5684 5682 5679 5676 5672 5668 5664 5660 5656 5651 5646 5640 5635 5630 5624 5618 5612 5606 5600 5594 5588 5582 5575 5568 5562 5555 5549 5542 5536 5530 5524 5519 5515
5693 5691 5690 5689 5687 5686 5684 5682 5680 5677 5675 5672 5669 5666 5662 5658 5654 5650 5645 5641 5636 5631 5626 5620 5615 5609 5604 5598 5593 5587 5581 5575 5568 5562 5556 5549 5542 5536 5529 5524 5518 5513 5509 5506
5682 5681 5680 5678 5676 5674 5672 5670 5667 5665 5662 5659 5656 5652 5648 5644 5640 5636 5632 5627 5622 5617 5612 5607 5602 5597 5592 5586 5581 5575 5569 5563 5557 5551 5544 5538 5532 5525 5520 5514 5510 5506 5502 5500
5672 5671 5669 5667 5665 5663 5660 5657 5655 5652 5649 5646 5642 5639 5635 5631 5627 5622 5618 5614 5609 5605 5600 5595 5591 5586 5581 5576 5570 5565 5559 5553 5547 5542 5536 5529 5524 5518 5513 5508 5504 5501 5498 5496
5662 5660 5658 5656 5654 5651 5648 5645 5642 5639 5636 5633 5629 5626 5622 5618 5615 5611 5606 5602 5598 5594 5590 5585 5581 5576 5571 5566 5561 5556 5551 5545 5540 5534 5528 5523 5518 5513 5508 5504 5501 5498 5496 5494
5651 5649 5646 5644 5642 5639 5636 5633 5630 5627 5624 5621 5618 5614 5611 5607 5604 5600 5596 5592 5588 5584 5581 5576 5572 5567 5563 5558 5554 5549 5544 5539 5533 5528 5523 5518 5514 5510 5507 5503 5500 5498 5496 5494
5639 5636 5634 5632 5629 5627 5624 5621 5619 5616 5613 5610 5607 5604 5601 5598 5594 5591 5587 5583 5580 5576 5572 5569 5565 5560 5556 5552 5547 5543 5538 5534 5529 5524 5520 5516 5513 5509 5506 5504 5501 5499 5497 5496